Printer-friendly version
Follow the MPC on Twitter Follow the MPC on Facebook The MPC blog
Minor Planet Center

MPEC 2001-A13 : 2000 YP29

The following Minor Planet Electronic Circular may be linked-to from your own Web pages, but must not otherwise be redistributed electronically.

A form allowing access to any MPEC is at the bottom of this page.


Read MPEC 2001-A12 Read MPEC 2001-A14


M.P.E.C. 2001-A13                                Issued 2001 Jan. 1, 19:46 UT

     The Minor Planet Electronic Circulars contain information on unusual
         minor planets and routine data on comets.  They are published
   on behalf of Commission 20 of the International Astronomical Union by the
          Minor Planet Center, Smithsonian Astrophysical Observatory,
                          Cambridge, MA 02138, U.S.A.

             Prepared using the Tamkin Foundation Computer Network

                              MPC@CFA.HARVARD.EDU
          URL http://cfa-www.harvard.edu/iau/mpc.html  ISSN 1523-6714

                                   2000 YP29

Observations:
     K00Y29P* C2000 12 28.32424 07 26 33.17 +07 36 44.7          17.8        704
     K00Y29P  C2000 12 28.33948 07 26 31.99 +07 36 43.2          17.8        704
     K00Y29P  C2000 12 28.35475 07 26 30.78 +07 36 42.3          17.2        704
     K00Y29P  C2000 12 28.37000 07 26 29.58 +07 36 41.3          17.3        704
     K00Y29P  C2000 12 30.29129 07 23 59.49 +07 34 24.2          17.8        704
     K00Y29P  C2000 12 30.30613 07 23 58.26 +07 34 23.5          18.3        704
     K00Y29P  C2000 12 30.32101 07 23 57.06 +07 34 23.1          18.2        704
     K00Y29P  C2000 12 30.33599 07 23 55.82 +07 34 21.3          18.5        704
     K00Y29P  C2000 12 30.35077 07 23 54.64 +07 34 20.3          19.0        704
     K00Y29P  C2000 12 31.95240 07 21 44.72 +07 32 51.8          17.4 R      046
     K00Y29P  C2000 12 31.95394 07 21 44.61 +07 32 51.9                      046
     K00Y29P  C2000 12 31.95493 07 21 44.49 +07 32 52.0                      046
     K00Y29P  C2000 12 31.95596 07 21 44.43 +07 32 51.4                      046
     K00Y29P  C2000 12 31.95694 07 21 44.35 +07 32 51.9                      046
     K00Y29P  C2000 12 31.98276 07 21 42.16 +07 32 50.7          17.6        106
     K00Y29P  C2001 01 01.00335 07 21 40.46 +07 32 49.7          17.8        106
     K00Y29P  C2001 01 01.06598 07 21 35.17 +07 32 46.3                      557
     K00Y29P  C2001 01 01.06826 07 21 34.98 +07 32 46.2                      557
     K00Y29P  C2001 01 01.07054 07 21 34.78 +07 32 45.9                      557
     K00Y29P  C2001 01 01.07282 07 21 34.59 +07 32 45.9                      557
     K00Y29P  C2001 01 01.08772 07 21 33.33 +07 32 45.8                      118
     K00Y29P  C2001 01 01.09120 07 21 33.12 +07 32 45.9                      118
     K00Y29P  C2001 01 01.09494 07 21 32.71 +07 32 45.0                      118

Observer details:
046 Klet.  Observers J. Ticha, M. Tichy.  0.57-m f/5.2 reflector + CCD.
106 Crni Vrh.  Observer J. Skvarc.  0.36-m f/6.7 Schmidt-Cassegrain + CCD.
118 Modra.  Observers L. Kornos, P. Koleny.  0.6-m f/5.5 reflector + CCD.
557 Ondrejov.  Observer P. Kusnirak.  0.65-m f/3.6 reflector + CCD.
704 Lincoln Laboratory ETS, New Mexico.  Observers M. Blythe, F. Shelly,
    M. Bezpalko, R. Huber, L. Manguso, S. Adams.  Measurers J. Stuart,
    R. Sayer, J. B. Evans, H. Viggh.  1.0-m f/2.15 reflector + CCD.

Orbital elements:
2000 YP29
Epoch 2000 Dec. 22.0 TT = JDT 2451900.5                 Williams
M 309.55054              (2000.0)            P               Q
n   0.25141786     Peri.   34.03469     -0.52924206     +0.84620072
a   2.4862147      Node   204.18934     -0.80826700     -0.52505164
e   0.6876969      Incl.    8.70651     -0.25808390     -0.09091267
P   3.92           H   14.0           G   0.15
From 23 observations 2000 Dec. 28-2001 Jan. 1.

Ephemeris:
2000 YP29                a,e,i = 2.49, 0.69, 9                   q = 0.7765
Date    TT    R. A. (2000) Decl.     Delta      r     Elong.  Phase     V
2001 01 01    07 21.68   +07 32.9    1.450    2.406   162.3     7.1    17.2
2001 01 11    07 06.87   +07 33.0    1.364    2.327   164.7     6.4    17.0
2001 01 21    06 50.90   +07 49.3    1.308    2.246   156.7    10.0    17.0
2001 01 31    06 35.51   +08 20.8    1.280    2.162   145.0    15.1    17.0
2001 02 10    06 22.43   +09 04.7    1.276    2.076   132.7    20.4    17.1
2001 02 20    06 12.89   +09 57.2    1.290    1.988   120.9    25.3    17.2
2001 03 02    06 07.59   +10 54.7    1.314    1.897   109.9    29.4    17.3
2001 03 12    06 06.68   +11 54.0    1.342    1.803   100.0    32.9    17.3
2001 03 22    06 09.98   +12 52.3    1.368    1.707    91.0    35.7    17.3
2001 04 01    06 17.26   +13 47.5    1.388    1.609    83.0    38.1    17.3
2001 04 11    06 28.21   +14 37.3    1.398    1.508    75.9    40.1    17.2
2001 04 21    06 42.59   +15 20.1    1.394    1.406    69.6    42.1    17.1
2001 05 01    07 00.29   +15 53.8    1.376    1.303    64.1    44.1    17.0

2001 08 09    13 31.52   +07 07.8    0.509    0.905    63.1    86.8    15.4
2001 08 19    14 49.98   +03 04.0    0.470    0.991    73.9    79.0    15.1
2001 08 29    16 12.13   -01 35.0    0.479    1.086    85.8    68.1    15.0
2001 09 08    17 26.38   -05 34.4    0.537    1.186    95.5    57.7    15.1
2001 09 18    18 26.79   -08 16.1    0.634    1.289   101.3    49.8    15.4
2001 09 28    19 14.30   -09 48.0    0.761    1.393   103.5    44.4    15.8
2001 10 08    19 52.17   -10 30.3    0.909    1.495   103.0    40.6    16.3
2001 10 18    20 23.39   -10 39.0    1.074    1.596   100.8    37.8    16.7
2001 10 28    20 50.10   -10 24.3    1.251    1.694    97.4    35.6    17.1
2001 11 07    21 13.69   -09 52.5    1.438    1.791    93.2    33.5    17.5
2001 11 17    21 35.08   -09 07.9    1.632    1.885    88.4    31.6    17.8
2001 11 27    21 54.89   -08 13.3    1.832    1.976    83.2    29.7    18.1
2001 12 07    22 13.50   -07 10.9    2.035    2.065    77.8    27.8    18.4
2001 12 17    22 31.20   -06 02.4    2.238    2.151    72.2    25.8    18.6
2001 12 27    22 48.18   -04 49.1    2.440    2.235    66.4    23.8    18.8

Gareth V. Williams           (C) Copyright 2001 MPC           M.P.E.C. 2001-A13

Read MPEC 2001-A12 Read MPEC 2001-A14


MPEC number:

Enter an MPEC number in one of the following forms:

  • 1997-B01 (the full form)
  • J97B01 (the packed version of the full form)
  • B01 (the abbreviated form)

Valid HTML 4.01!